Location: Chrome
(40.5765°N, 74.2163°W)
Time: 18:28:56
(UTC+00:00)

H-2A R/B - Pass Details

Date: 06 December 2019
Orbit: 502 x 541 km, 97.3° (Epoch: 28 January)

Event Time Altitude Azimuth Distance (km) Brightness Sun altitude
Rises 22:06:22 0° 155° (SSE) 2,613 6.3 -7.0°
Reaches altitude 10° 22:08:30 10° 150° (SSE) 1,726 5.3 -7.4°
Maximum altitude 22:12:05 50° 75° (ENE) 656 2.8 -8.0°
Drops below altitude 10° 22:15:41 10° 359° (N) 1,724 5.1 -8.7°
Sets 22:17:49 0° 354° (N) 2,610 6.1 -9.0°
